Time,TemperatureF,DewpointF,PressureIn,WindDirection,WindDirectionDegrees,WindSpeedMPH,WindSpeedGustMPH,Humidity,HourlyPrecipIn,Conditions,Clouds,dailyrainin,SoftwareType,DateUTC
2013-05-20 00:01:00,71.1,59.6,29.85,WSW,248,0.0,0.0,67,0.00,,---,0.00,VWS V14.00,2013-05-20 04:01:00,
2013-05-20 00:02:00,71.1,59.6,29.85,WSW,248,0.0,0.0,67,0.00,,---,0.00,VWS V14.00,2013-05-20 04:02:00,
2013-05-20 00:07:00,70.9,59.4,29.85,WSW,248,0.0,0.0,67,0.00,,---,0.00,VWS V14.00,2013-05-20 04:07:00,
2013-05-20 00:12:00,70.9,59.4,29.85,WSW,248,0.0,0.0,67,0.00,,---,0.00,VWS V14.00,2013-05-20 04:12:00,
2013-05-20 00:17:00,70.7,59.6,29.85,WSW,248,0.0,0.0,68,0.00,,---,0.00,VWS V14.00,2013-05-20 04:17:00,
2013-05-20 00:22:00,70.5,59.5,29.85,WSW,248,0.0,0.0,68,0.00,,---,0.00,VWS V14.00,2013-05-20 04:22:00,
2013-05-20 00:27:00,70.3,59.3,29.85,WSW,248,0.0,0.0,68,0.00,,---,0.00,VWS V14.00,2013-05-20 04:27:00,
2013-05-20 00:32:00,70.3,59.3,29.85,WSW,248,0.0,0.0,68,0.00,,---,0.00,VWS V14.00,2013-05-20 04:32:00,
2013-05-20 00:37:00,70.2,59.5,29.85,WSW,248,0.0,0.0,69,0.00,,---,0.00,VWS V14.00,2013-05-20 04:37:00,
2013-05-20 00:43:00,70.0,59.3,29.85,WSW,248,0.0,0.0,69,0.00,,---,0.00,VWS V14.00,2013-05-20 04:43:00,
2013-05-20 00:48:00,69.8,59.2,29.85,WSW,248,0.0,0.0,69,0.00,,---,0.00,VWS V14.00,2013-05-20 04:48:00,
2013-05-20 00:53:00,69.8,59.2,29.85,WSW,248,0.0,0.0,69,0.00,,---,0.00,VWS V14.00,2013-05-20 04:53:00,
2013-05-20 00:58:00,69.6,59.4,29.85,WSW,248,0.0,0.0,70,0.00,,---,0.00,VWS V14.00,2013-05-20 04:58:00,
2013-05-20 01:03:00,69.4,59.2,29.85,WSW,248,0.0,0.0,70,0.00,,---,0.00,VWS V14.00,2013-05-20 05:03:00,
2013-05-20 01:08:00,69.3,59.5,29.85,East,90,0.0,0.0,71,0.00,,---,0.00,VWS V14.00,2013-05-20 05:08:00,
2013-05-20 01:13:00,69.1,59.3,29.85,East,90,0.0,0.0,71,0.00,,---,0.00,VWS V14.00,2013-05-20 05:13:00,
2013-05-20 01:18:00,68.9,59.1,29.85,East,90,0.0,0.0,71,0.00,,---,0.00,VWS V14.00,2013-05-20 05:18:00,
2013-05-20 01:23:00,68.9,59.1,29.85,East,90,0.0,0.0,71,0.00,,---,0.00,VWS V14.00,2013-05-20 05:23:00,
2013-05-20 01:29:00,68.9,59.5,29.85,East,90,0.0,0.0,72,0.00,,---,0.00,VWS V14.00,2013-05-20 05:29:00,
2013-05-20 01:34:00,68.7,59.3,29.85,East,90,0.0,0.0,72,0.00,,---,0.00,VWS V14.00,2013-05-20 05:34:00,
2013-05-20 01:39:00,68.7,59.3,29.85,ESE,112,0.0,0.0,72,0.00,,---,0.00,VWS V14.00,2013-05-20 05:39:00,
2013-05-20 01:44:00,68.7,59.3,29.85,SSW,202,0.0,1.6,72,0.00,,---,0.00,VWS V14.00,2013-05-20 05:44:00,
2013-05-20 01:49:00,68.7,59.3,29.85,SSE,158,0.0,0.0,72,0.00,,---,0.00,VWS V14.00,2013-05-20 05:49:00,
2013-05-20 01:54:00,68.7,59.3,29.85,SE,135,0.0,0.0,72,0.00,,---,0.00,VWS V14.00,2013-05-20 05:54:00,
2013-05-20 01:59:00,68.9,59.9,29.85,South,180,0.0,0.0,73,0.00,,---,0.00,VWS V14.00,2013-05-20 05:59:00,
2013-05-20 02:04:00,69.3,59.9,29.85,WNW,292,0.0,0.0,72,0.00,,---,0.00,VWS V14.00,2013-05-20 06:04:00,
2013-05-20 02:09:00,69.4,60.0,29.85,South,180,0.0,0.0,72,0.00,,---,0.00,VWS V14.00,2013-05-20 06:09:00,
2013-05-20 02:14:00,69.6,60.2,29.85,SE,135,0.0,0.9,72,0.00,,---,0.00,VWS V14.00,2013-05-20 06:14:00,
2013-05-20 02:19:00,70.2,60.7,29.85,SE,135,0.0,0.0,72,0.00,,---,0.00,VWS V14.00,2013-05-20 06:19:00,
2013-05-20 02:24:00,70.3,60.9,29.85,South,180,1.1,2.0,72,0.00,,---,0.00,VWS V14.00,2013-05-20 06:24:00,
2013-05-20 02:29:00,70.3,60.5,29.85,SSW,202,1.6,1.6,71,0.00,,---,0.00,VWS V14.00,2013-05-20 06:29:00,
2013-05-20 02:35:00,70.5,61.1,29.85,South,180,1.1,2.7,72,0.00,,---,0.00,VWS V14.00,2013-05-20 06:35:00,
2013-05-20 02:40:00,70.7,61.2,29.85,SSW,202,0.0,1.1,72,0.00,,---,0.00,VWS V14.00,2013-05-20 06:40:00,
2013-05-20 02:45:00,70.7,60.8,29.85,SE,135,0.9,0.9,71,0.00,,---,0.00,VWS V14.00,2013-05-20 06:45:00,
2013-05-20 02:50:00,70.9,61.4,29.85,SE,135,1.6,3.6,72,0.00,,---,0.00,VWS V14.00,2013-05-20 06:50:00,
2013-05-20 02:55:00,70.9,61.0,29.85,SSE,158,0.9,1.3,71,0.00,,---,0.00,VWS V14.00,2013-05-20 06:55:00,
2013-05-20 03:00:00,70.7,60.8,29.88,SSW,202,0.0,0.0,71,0.00,,---,0.00,VWS V14.00,2013-05-20 07:00:00,
2013-05-20 03:05:00,70.7,60.8,29.88,South,180,0.0,1.3,71,0.00,,---,0.00,VWS V14.00,2013-05-20 07:05:00,
2013-05-20 03:10:00,70.7,61.2,29.88,SSW,202,0.0,0.0,72,0.00,,---,0.00,VWS V14.00,2013-05-20 07:10:00,
2013-05-20 03:15:00,70.7,61.2,29.85,SSE,158,0.0,0.0,72,0.00,,---,0.00,VWS V14.00,2013-05-20 07:15:00,
2013-05-20 03:20:00,70.5,61.1,29.85,South,180,1.3,1.6,72,0.00,,---,0.00,VWS V14.00,2013-05-20 07:20:00,
2013-05-20 03:25:00,70.5,61.1,29.85,SSE,158,2.0,2.0,72,0.00,,---,0.00,VWS V14.00,2013-05-20 07:25:00,
2013-05-20 03:30:00,70.2,60.7,29.88,SSE,158,1.3,1.6,72,0.00,,---,0.00,VWS V14.00,2013-05-20 07:30:00,
2013-05-20 03:35:00,70.0,60.5,29.88,SSE,158,0.0,0.0,72,0.00,,---,0.00,VWS V14.00,2013-05-20 07:35:00,
2013-05-20 03:41:00,69.8,60.8,29.88,SSW,202,1.1,1.1,73,0.00,,---,0.00,VWS V14.00,2013-05-20 07:41:00,
2013-05-20 03:46:00,69.6,60.6,29.85,ENE,68,0.0,0.0,73,0.00,,---,0.00,VWS V14.00,2013-05-20 07:46:00,
2013-05-20 03:51:00,69.3,60.6,29.85,SSW,202,0.0,0.0,74,0.00,,---,0.00,VWS V14.00,2013-05-20 07:51:00,
2013-05-20 03:56:00,69.3,60.6,29.85,SSE,158,0.0,0.0,74,0.00,,---,0.00,VWS V14.00,2013-05-20 07:56:00,
2013-05-20 04:01:00,69.1,60.8,29.88,SSE,158,0.0,0.0,75,0.00,,---,0.00,VWS V14.00,2013-05-20 08:01:00,
2013-05-20 04:06:00,69.1,60.8,29.88,South,180,0.0,0.0,75,0.00,,---,0.00,VWS V14.00,2013-05-20 08:06:00,
2013-05-20 04:11:00,69.3,61.0,29.88,SSE,158,1.6,1.6,75,0.00,,---,0.00,VWS V14.00,2013-05-20 08:11:00,
2013-05-20 04:16:00,69.3,61.4,29.88,SSE,158,0.0,2.2,76,0.00,,---,0.00,VWS V14.00,2013-05-20 08:16:00,
2013-05-20 04:21:00,69.3,61.4,29.88,South,180,0.0,0.0,76,0.00,,---,0.00,VWS V14.00,2013-05-20 08:21:00,
2013-05-20 04:27:00,69.3,61.4,29.88,SSE,158,1.1,1.6,76,0.00,,---,0.00,VWS V14.00,2013-05-20 08:27:00,
2013-05-20 04:32:00,69.4,61.9,29.88,SSE,158,0.0,0.0,77,0.00,,---,0.00,VWS V14.00,2013-05-20 08:32:00,
2013-05-20 04:37:00,69.4,61.9,29.88,SSE,158,0.0,1.1,77,0.00,,---,0.00,VWS V14.00,2013-05-20 08:37:00,
2013-05-20 04:42:00,69.3,61.8,29.88,SSE,158,0.0,0.0,77,0.00,,---,0.00,VWS V14.00,2013-05-20 08:42:00,
2013-05-20 04:47:00,69.4,61.9,29.88,East,90,1.3,1.3,77,0.00,,---,0.00,VWS V14.00,2013-05-20 08:47:00,
2013-05-20 04:52:00,69.4,61.9,29.88,South,180,1.1,2.0,77,0.00,,---,0.00,VWS V14.00,2013-05-20 08:52:00,
2013-05-20 04:57:00,69.3,61.8,29.88,SSE,158,1.3,1.6,77,0.00,,---,0.00,VWS V14.00,2013-05-20 08:57:00,
2013-05-20 05:02:00,69.3,61.8,29.88,SSE,158,0.0,0.0,77,0.00,,---,0.00,VWS V14.00,2013-05-20 09:02:00,
2013-05-20 05:07:00,68.9,61.4,29.88,SSE,158,0.0,0.0,77,0.00,,---,0.00,VWS V14.00,2013-05-20 09:07:00,
2013-05-20 05:12:00,68.7,61.2,29.88,SE,135,2.5,2.5,77,0.00,,---,0.00,VWS V14.00,2013-05-20 09:12:00,
2013-05-20 05:17:00,68.7,61.6,29.88,SSW,202,0.0,0.0,78,0.00,,---,0.00,VWS V14.00,2013-05-20 09:17:00,
2013-05-20 05:23:00,68.4,61.2,29.88,South,180,2.0,2.0,78,0.00,,---,0.00,VWS V14.00,2013-05-20 09:23:00,
2013-05-20 05:28:00,68.2,61.1,29.88,SSE,158,1.1,1.6,78,0.00,,---,0.00,VWS V14.00,2013-05-20 09:28:00,
2013-05-20 05:33:00,68.2,61.4,29.85,South,180,0.0,0.0,79,0.00,,---,0.00,VWS V14.00,2013-05-20 09:33:00,
2013-05-20 05:38:00,68.0,61.2,29.85,South,180,0.0,0.0,79,0.00,,---,0.00,VWS V14.00,2013-05-20 09:38:00,
2013-05-20 05:43:00,67.6,61.3,29.85,SSE,158,0.0,0.0,80,0.00,,---,0.00,VWS V14.00,2013-05-20 09:43:00,
2013-05-20 05:48:00,67.6,61.3,29.85,South,180,1.3,2.2,80,0.00,,---,0.00,VWS V14.00,2013-05-20 09:48:00,
2013-05-20 05:53:00,67.5,61.1,29.85,SE,135,0.0,0.0,80,0.00,,---,0.00,VWS V14.00,2013-05-20 09:53:00,
2013-05-20 05:58:00,67.5,61.1,29.85,South,180,0.0,0.9,80,0.00,,---,0.00,VWS V14.00,2013-05-20 09:58:00,
2013-05-20 06:03:00,67.3,61.3,29.82,SSE,158,1.3,2.5,81,0.00,,---,0.00,VWS V14.00,2013-05-20 10:03:00,
2013-05-20 06:09:00,67.3,61.3,29.82,SSE,158,0.0,0.0,81,0.00,,---,0.00,VWS V14.00,2013-05-20 10:09:00,
2013-05-20 06:14:00,67.1,61.1,29.79,South,180,2.5,2.5,81,0.00,,---,0.00,VWS V14.00,2013-05-20 10:14:00,
2013-05-20 06:19:00,67.1,61.1,29.79,ESE,112,1.3,1.3,81,0.00,,---,0.00,VWS V14.00,2013-05-20 10:19:00,
2013-05-20 06:24:00,67.1,61.4,29.79,SSW,202,0.0,1.1,82,0.00,,---,0.00,VWS V14.00,2013-05-20 10:24:00,
2013-05-20 06:29:00,67.1,61.4,29.82,SSW,202,0.0,0.0,82,0.00,,---,0.00,VWS V14.00,2013-05-20 10:29:00,
2013-05-20 06:34:00,67.5,62.1,29.82,SSE,158,2.0,2.0,83,0.00,,---,0.00,VWS V14.00,2013-05-20 10:34:00,
2013-05-20 06:39:00,67.5,62.1,29.82,South,180,0.0,0.0,83,0.00,,---,0.00,VWS V14.00,2013-05-20 10:39:00,
2013-05-20 06:44:00,67.6,62.6,29.85,SSW,202,0.0,0.0,84,0.00,,---,0.00,VWS V14.00,2013-05-20 10:44:00,
2013-05-20 06:49:00,67.8,63.2,29.85,South,180,1.6,2.7,85,0.00,,---,0.00,VWS V14.00,2013-05-20 10:49:00,
2013-05-20 06:54:00,68.0,63.0,29.85,SE,135,1.1,1.3,84,0.00,,---,0.00,VWS V14.00,2013-05-20 10:54:00,
2013-05-20 06:59:00,68.2,63.2,29.85,SW,225,0.0,0.0,84,0.00,,---,0.00,VWS V14.00,2013-05-20 10:59:00,
2013-05-20 07:04:00,68.2,63.2,29.85,ESE,112,1.3,1.3,84,0.00,,---,0.00,VWS V14.00,2013-05-20 11:04:00,
2013-05-20 07:10:00,68.4,63.3,29.85,South,180,0.0,0.0,84,0.00,,---,0.00,VWS V14.00,2013-05-20 11:10:00,
2013-05-20 07:15:00,68.5,63.5,29.88,SSE,158,0.0,0.0,84,0.00,,---,0.00,VWS V14.00,2013-05-20 11:15:00,
2013-05-20 07:20:00,68.7,63.7,29.88,South,180,0.0,0.0,84,0.00,,---,0.00,VWS V14.00,2013-05-20 11:20:00,
2013-05-20 07:25:00,68.9,63.9,29.88,SSE,158,0.0,0.0,84,0.00,,---,0.00,VWS V14.00,2013-05-20 11:25:00,
2013-05-20 07:30:00,69.1,64.4,29.85,SSW,202,1.1,3.6,85,0.00,,---,0.00,VWS V14.00,2013-05-20 11:30:00,
2013-05-20 07:35:00,69.3,64.6,29.85,SE,135,0.0,0.9,85,0.00,,---,0.00,VWS V14.00,2013-05-20 11:35:00,
2013-05-20 07:40:00,69.4,64.4,29.85,South,180,3.1,3.1,84,0.00,,---,0.00,VWS V14.00,2013-05-20 11:40:00,
2013-05-20 07:45:00,69.8,64.8,29.88,SW,225,0.0,0.0,84,0.00,,---,0.00,VWS V14.00,2013-05-20 11:45:00,
2013-05-20 07:50:00,70.0,64.9,29.88,South,180,2.9,2.9,84,0.00,,---,0.00,VWS V14.00,2013-05-20 11:50:00,
2013-05-20 07:55:00,70.2,65.1,29.88,SSW,202,0.0,1.3,84,0.00,,---,0.00,VWS V14.00,2013-05-20 11:55:00,
2013-05-20 08:00:00,70.5,65.5,29.88,SSE,158,0.0,0.0,84,0.00,,---,0.00,VWS V14.00,2013-05-20 12:00:00,
2013-05-20 08:06:00,70.9,65.8,29.88,SE,135,0.9,2.5,84,0.00,,---,0.00,VWS V14.00,2013-05-20 12:06:00,
2013-05-20 08:11:00,71.4,66.0,29.88,West,270,1.3,2.9,83,0.00,,---,0.00,VWS V14.00,2013-05-20 12:11:00,
2013-05-20 08:16:00,71.8,66.3,29.88,SSE,158,3.1,5.6,83,0.00,,---,0.00,VWS V14.00,2013-05-20 12:16:00,
2013-05-20 08:21:00,72.0,66.2,29.88,SE,135,4.3,4.3,82,0.00,,---,0.00,VWS V14.00,2013-05-20 12:21:00,
2013-05-20 08:26:00,72.1,66.3,29.88,South,180,1.1,5.6,82,0.00,,---,0.00,VWS V14.00,2013-05-20 12:26:00,
2013-05-20 08:31:00,72.5,66.7,29.88,SSE,158,0.0,1.3,82,0.00,,---,0.00,VWS V14.00,2013-05-20 12:31:00,
2013-05-20 08:36:00,72.7,66.9,29.88,SSE,158,5.6,6.0,82,0.00,,---,0.00,VWS V14.00,2013-05-20 12:36:00,
2013-05-20 08:41:00,73.0,67.2,29.88,SSE,158,1.3,1.6,82,0.00,,---,0.00,VWS V14.00,2013-05-20 12:41:00,
2013-05-20 08:46:00,73.6,67.4,29.88,SE,135,1.1,1.3,81,0.00,,---,0.00,VWS V14.00,2013-05-20 12:46:00,
2013-05-20 08:51:00,74.1,67.9,29.88,WSW,248,3.1,3.1,81,0.00,,---,0.00,VWS V14.00,2013-05-20 12:51:00,
2013-05-20 08:56:00,74.1,67.6,29.88,SSE,158,2.7,2.7,80,0.00,,---,0.00,VWS V14.00,2013-05-20 12:56:00,
2013-05-20 09:01:00,74.1,67.6,29.88,South,180,1.1,1.1,80,0.00,,---,0.00,VWS V14.00,2013-05-20 13:01:00,
2013-05-20 09:06:00,73.9,67.0,29.88,SSE,158,0.0,0.9,79,0.00,,---,0.00,VWS V14.00,2013-05-20 13:06:00,
2013-05-20 09:11:00,74.1,67.2,29.88,ESE,112,5.6,5.6,79,0.00,,---,0.00,VWS V14.00,2013-05-20 13:11:00,
2013-05-20 09:16:00,74.7,67.7,29.88,SSW,202,2.0,2.0,79,0.00,,---,0.00,VWS V14.00,2013-05-20 13:16:00,
2013-05-20 09:22:00,75.2,67.9,29.88,West,270,2.2,3.1,78,0.00,,---,0.00,VWS V14.00,2013-05-20 13:22:00,
2013-05-20 09:27:00,75.4,68.1,29.88,WNW,292,2.7,3.1,78,0.00,,---,0.00,VWS V14.00,2013-05-20 13:27:00,
2013-05-20 09:32:00,75.4,68.1,29.88,West,270,0.0,1.1,78,0.00,,---,0.00,VWS V14.00,2013-05-20 13:32:00,
2013-05-20 09:37:00,75.2,67.9,29.88,SE,135,2.0,4.3,78,0.00,,---,0.00,VWS V14.00,2013-05-20 13:37:00,
2013-05-20 09:42:00,75.4,68.1,29.88,SSE,158,1.1,1.1,78,0.00,,---,0.00,VWS V14.00,2013-05-20 13:42:00,
2013-05-20 09:47:00,75.6,67.8,29.88,West,270,0.9,1.6,77,0.00,,---,0.00,VWS V14.00,2013-05-20 13:47:00,
2013-05-20 09:52:00,75.6,67.8,29.88,West,270,0.0,0.0,77,0.00,,---,0.00,VWS V14.00,2013-05-20 13:52:00,
2013-05-20 09:57:00,75.7,68.0,29.88,SSE,158,0.0,0.0,77,0.00,,---,0.00,VWS V14.00,2013-05-20 13:57:00,
2013-05-20 10:02:00,75.7,68.0,29.88,SSW,202,0.0,0.0,77,0.00,,---,0.00,VWS V14.00,2013-05-20 14:02:00,
2013-05-20 10:07:00,75.6,67.8,29.88,SSE,158,2.2,4.7,77,0.00,,---,0.00,VWS V14.00,2013-05-20 14:07:00,
2013-05-20 10:12:00,75.7,68.0,29.88,SW,225,0.0,0.0,77,0.00,,---,0.00,VWS V14.00,2013-05-20 14:12:00,
2013-05-20 10:17:00,75.9,68.2,29.88,SSE,158,0.0,2.2,77,0.00,,---,0.00,VWS V14.00,2013-05-20 14:17:00,
2013-05-20 10:22:00,76.1,68.4,29.88,SE,135,3.1,3.1,77,0.00,,---,0.00,VWS V14.00,2013-05-20 14:22:00,
2013-05-20 10:28:00,76.6,68.9,29.88,SSW,202,1.3,3.4,77,0.00,,---,0.00,VWS V14.00,2013-05-20 14:28:00,
2013-05-20 10:33:00,77.0,68.5,29.88,SSE,158,2.2,3.4,75,0.00,,---,0.00,VWS V14.00,2013-05-20 14:33:00,
2013-05-20 10:38:00,77.2,68.7,29.88,SSW,202,2.5,5.4,75,0.00,,---,0.00,VWS V14.00,2013-05-20 14:38:00,
2013-05-20 10:43:00,77.5,69.0,29.88,South,180,2.2,7.4,75,0.00,,---,0.00,VWS V14.00,2013-05-20 14:43:00,
2013-05-20 10:48:00,78.1,69.1,29.85,East,90,2.0,2.7,74,0.00,,---,0.00,VWS V14.00,2013-05-20 14:48:00,
2013-05-20 10:53:00,77.7,68.0,29.85,WSW,248,1.1,4.0,72,0.00,,---,0.00,VWS V14.00,2013-05-20 14:53:00,
2013-05-20 10:58:00,77.9,68.2,29.85,SSE,158,1.1,6.3,72,0.00,,---,0.00,VWS V14.00,2013-05-20 14:58:00,
2013-05-20 11:03:00,78.8,69.0,29.85,SSW,202,1.1,1.1,72,0.00,,---,0.00,VWS V14.00,2013-05-20 15:03:00,
2013-05-20 11:08:00,78.8,68.2,29.85,SSE,158,4.7,4.7,70,0.00,,---,0.00,VWS V14.00,2013-05-20 15:08:00,
2013-05-20 11:13:00,79.3,68.7,29.85,South,180,3.1,5.6,70,0.00,,---,0.00,VWS V14.00,2013-05-20 15:13:00,
2013-05-20 11:18:00,79.5,68.9,29.85,SE,135,2.5,2.5,70,0.00,,---,0.00,VWS V14.00,2013-05-20 15:18:00,
2013-05-20 11:23:00,80.1,68.6,29.85,SSE,158,4.0,4.7,68,0.00,,---,0.00,VWS V14.00,2013-05-20 15:23:00,
2013-05-20 11:28:00,80.2,69.2,29.85,ENE,68,3.4,3.4,69,0.00,,---,0.00,VWS V14.00,2013-05-20 15:28:00,
2013-05-20 11:33:00,80.4,68.9,29.85,SE,135,1.3,1.3,68,0.00,,---,0.00,VWS V14.00,2013-05-20 15:33:00,
2013-05-20 11:39:00,81.1,69.6,29.85,South,180,3.6,4.9,68,0.00,,---,0.00,VWS V14.00,2013-05-20 15:39:00,
2013-05-20 11:44:00,81.7,69.7,29.85,WSW,248,1.1,1.3,67,0.00,,---,0.00,VWS V14.00,2013-05-20 15:44:00,
2013-05-20 11:49:00,81.7,68.8,29.85,NNE,22,2.9,4.9,65,0.00,,---,0.00,VWS V14.00,2013-05-20 15:49:00,
2013-05-20 11:54:00,81.1,68.3,29.85,SW,225,2.5,3.4,65,0.00,,---,0.00,VWS V14.00,2013-05-20 15:54:00,
2013-05-20 11:59:00,81.0,68.1,29.85,South,180,1.3,2.2,65,0.00,,---,0.00,VWS V14.00,2013-05-20 15:59:00,
2013-05-20 12:04:00,81.7,69.2,29.85,SE,135,5.8,5.8,66,0.00,,---,0.00,VWS V14.00,2013-05-20 16:04:00,
2013-05-20 12:09:00,82.0,69.1,29.85,South,180,6.5,6.5,65,0.00,,---,0.00,VWS V14.00,2013-05-20 16:09:00,
2013-05-20 12:14:00,81.5,68.6,29.85,SE,135,1.6,2.7,65,0.00,,---,0.00,VWS V14.00,2013-05-20 16:14:00,
2013-05-20 12:20:00,82.2,69.3,29.85,ESE,112,3.8,3.8,65,0.00,,---,0.00,VWS V14.00,2013-05-20 16:20:00,
2013-05-20 12:25:00,82.2,68.8,29.85,South,180,2.0,2.9,64,0.00,,---,0.00,VWS V14.00,2013-05-20 16:25:00,
2013-05-20 12:30:00,83.1,70.1,29.85,SW,225,2.0,2.0,65,0.00,,---,0.00,VWS V14.00,2013-05-20 16:30:00,
2013-05-20 12:35:00,83.8,69.9,29.85,ESE,112,2.9,4.3,63,0.00,,---,0.00,VWS V14.00,2013-05-20 16:35:00,
2013-05-20 12:40:00,82.9,68.6,29.85,South,180,3.6,8.7,62,0.00,,---,0.00,VWS V14.00,2013-05-20 16:40:00,
2013-05-20 12:45:00,82.6,68.2,29.85,WNW,292,2.7,3.8,62,0.00,,---,0.00,VWS V14.00,2013-05-20 16:45:00,
2013-05-20 12:50:00,82.8,68.4,29.85,SSE,158,3.4,3.6,62,0.00,,---,0.00,VWS V14.00,2013-05-20 16:50:00,
2013-05-20 12:55:00,83.7,69.3,29.85,West,270,1.3,3.4,62,0.00,,---,0.00,VWS V14.00,2013-05-20 16:55:00,
2013-05-20 13:00:00,84.2,69.3,29.82,South,180,1.6,2.5,61,0.00,,---,0.00,VWS V14.00,2013-05-20 17:00:00,
2013-05-20 13:05:00,84.2,68.3,29.82,ESE,112,3.1,6.5,59,0.00,,---,0.00,VWS V14.00,2013-05-20 17:05:00,
2013-05-20 13:10:00,84.6,67.7,29.82,NW,315,5.6,6.0,57,0.00,,---,0.00,VWS V14.00,2013-05-20 17:10:00,
2013-05-20 13:15:00,84.4,67.5,29.82,South,180,1.6,2.0,57,0.00,,---,0.00,VWS V14.00,2013-05-20 17:15:00,
2013-05-20 13:20:00,84.6,68.2,29.82,SE,135,2.7,6.5,58,0.00,,---,0.00,VWS V14.00,2013-05-20 17:20:00,
2013-05-20 13:25:00,84.9,68.5,29.82,West,270,1.6,1.6,58,0.00,,---,0.00,VWS V14.00,2013-05-20 17:25:00,
2013-05-20 13:30:00,85.8,68.3,29.82,South,180,4.3,5.8,56,0.00,,---,0.00,VWS V14.00,2013-05-20 17:30:00,
2013-05-20 13:35:00,85.5,67.5,29.82,SE,135,6.3,6.3,55,0.00,,---,0.00,VWS V14.00,2013-05-20 17:35:00,
2013-05-20 13:40:00,85.8,67.8,29.82,SSE,158,9.0,9.0,55,0.00,,---,0.00,VWS V14.00,2013-05-20 17:40:00,
2013-05-20 13:45:00,86.0,68.0,29.82,South,180,2.7,4.9,55,0.00,,---,0.00,VWS V14.00,2013-05-20 17:45:00,
2013-05-20 13:50:00,85.8,68.3,29.82,ESE,112,4.3,5.6,56,0.00,,---,0.00,VWS V14.00,2013-05-20 17:50:00,
2013-05-20 13:55:00,85.3,66.8,29.82,ESE,112,5.6,5.6,54,0.00,,---,0.00,VWS V14.00,2013-05-20 17:55:00,
2013-05-20 14:00:00,85.6,66.6,29.82,SSE,158,4.9,6.0,53,0.00,,---,0.00,VWS V14.00,2013-05-20 18:00:00,
2013-05-20 14:05:00,86.2,67.1,29.82,WSW,248,2.2,4.3,53,0.00,,---,0.00,VWS V14.00,2013-05-20 18:05:00,
2013-05-20 14:10:00,86.5,67.9,29.82,SSE,158,4.9,5.6,54,0.00,,---,0.00,VWS V14.00,2013-05-20 18:10:00,
2013-05-20 14:15:00,87.3,67.5,29.82,South,180,2.0,5.8,52,0.00,,---,0.00,VWS V14.00,2013-05-20 18:15:00,
2013-05-20 14:20:00,87.4,67.7,29.82,South,180,0.0,3.1,52,0.00,,---,0.00,VWS V14.00,2013-05-20 18:20:00,
2013-05-20 14:25:00,87.8,66.9,29.82,SSE,158,3.4,3.6,50,0.00,,---,0.00,VWS V14.00,2013-05-20 18:25:00,
2013-05-20 14:30:00,87.3,65.8,29.82,SW,225,3.4,5.4,49,0.00,,---,0.00,VWS V14.00,2013-05-20 18:30:00,
2013-05-20 14:35:00,88.0,66.4,29.82,SSE,158,3.8,4.3,49,0.00,,---,0.00,VWS V14.00,2013-05-20 18:35:00,
2013-05-20 14:40:00,87.3,65.8,29.82,SSE,158,1.6,2.0,49,0.00,,---,0.00,VWS V14.00,2013-05-20 18:40:00,
2013-05-20 14:45:00,87.1,65.6,29.82,ENE,68,2.9,4.7,49,0.00,,---,0.00,VWS V14.00,2013-05-20 18:45:00,
2013-05-20 14:50:00,86.9,65.5,29.82,SSW,202,2.5,2.9,49,0.00,,---,0.00,VWS V14.00,2013-05-20 18:50:00,
2013-05-20 14:55:00,87.3,66.4,29.82,NNE,22,2.9,5.8,50,0.00,,---,0.00,VWS V14.00,2013-05-20 18:55:00,
2013-05-20 15:00:00,87.1,64.4,29.82,West,270,2.9,2.9,47,0.00,,---,0.00,VWS V14.00,2013-05-20 19:00:00,
2013-05-20 15:05:00,86.9,64.9,29.82,SW,225,1.3,3.6,48,0.00,,---,0.00,VWS V14.00,2013-05-20 19:05:00,
2013-05-20 15:10:00,87.1,65.6,29.82,SSW,202,4.7,4.7,49,0.00,,---,0.00,VWS V14.00,2013-05-20 19:10:00,
2013-05-20 15:15:00,86.9,64.9,29.79,SSE,158,2.5,3.4,48,0.00,,---,0.00,VWS V14.00,2013-05-20 19:15:00,
2013-05-20 15:20:00,87.1,64.4,29.79,WSW,248,6.0,6.0,47,0.00,,---,0.00,VWS V14.00,2013-05-20 19:20:00,
2013-05-20 15:25:00,86.9,64.9,29.79,SSE,158,2.2,2.7,48,0.00,,---,0.00,VWS V14.00,2013-05-20 19:25:00,
2013-05-20 15:30:00,86.9,63.7,29.79,SSW,202,2.7,4.0,46,0.00,,---,0.00,VWS V14.00,2013-05-20 19:30:00,
2013-05-20 15:35:00,86.7,64.1,29.79,West,270,1.1,2.5,47,0.00,,---,0.00,VWS V14.00,2013-05-20 19:35:00,
2013-05-20 15:40:00,86.4,63.8,29.79,SSE,158,1.3,2.9,47,0.00,,---,0.00,VWS V14.00,2013-05-20 19:40:00,
2013-05-20 15:45:00,86.7,64.1,29.76,SSW,202,1.6,2.2,47,0.00,,---,0.00,VWS V14.00,2013-05-20 19:45:00,
2013-05-20 15:50:00,87.1,64.4,29.76,NW,315,2.2,2.2,47,0.00,,---,0.00,VWS V14.00,2013-05-20 19:50:00,
2013-05-20 15:55:00,86.7,63.5,29.76,SSE,158,5.8,5.8,46,0.00,,---,0.00,VWS V14.00,2013-05-20 19:55:00,
2013-05-20 16:00:00,86.2,63.0,29.79,SSW,202,2.7,3.8,46,0.00,,---,0.00,VWS V14.00,2013-05-20 20:00:00,
2013-05-20 16:05:00,86.0,62.8,29.79,South,180,2.9,2.9,46,0.00,,---,0.00,VWS V14.00,2013-05-20 20:05:00,
2013-05-20 16:10:00,85.8,63.3,29.79,SW,225,2.7,2.7,47,0.00,,---,0.00,VWS V14.00,2013-05-20 20:10:00,
2013-05-20 16:15:00,85.5,63.0,29.76,SE,135,1.3,1.6,47,0.00,,---,0.00,VWS V14.00,2013-05-20 20:15:00,
2013-05-20 16:20:00,85.1,62.6,29.76,SSE,158,1.6,2.5,47,0.00,,---,0.00,VWS V14.00,2013-05-20 20:20:00,
2013-05-20 16:25:00,85.6,62.5,29.76,SW,225,1.3,3.4,46,0.00,,---,0.00,VWS V14.00,2013-05-20 20:25:00,
2013-05-20 16:30:00,86.2,61.7,29.76,West,270,2.9,2.9,44,0.00,,---,0.00,VWS V14.00,2013-05-20 20:30:00,
2013-05-20 16:35:00,86.7,61.6,29.76,West,270,2.7,3.6,43,0.00,,---,0.00,VWS V14.00,2013-05-20 20:35:00,
2013-05-20 16:40:00,86.2,58.3,29.76,SW,225,3.4,3.4,39,0.00,,---,0.00,VWS V14.00,2013-05-20 20:40:00,
2013-05-20 16:46:00,85.8,58.7,29.76,SSW,202,3.8,3.8,40,0.00,,---,0.00,VWS V14.00,2013-05-20 20:46:00,
2013-05-20 16:51:00,85.6,59.3,29.76,West,270,0.0,1.6,41,0.00,,---,0.00,VWS V14.00,2013-05-20 20:51:00,
2013-05-20 16:56:00,86.0,58.9,29.76,SSW,202,3.1,3.1,40,0.00,,---,0.00,VWS V14.00,2013-05-20 20:56:00,
2013-05-20 17:01:00,86.7,58.8,29.79,South,180,4.9,4.9,39,0.00,,---,0.00,VWS V14.00,2013-05-20 21:01:00,
2013-05-20 17:06:00,86.9,59.0,29.79,West,270,6.0,6.0,39,0.00,,---,0.00,VWS V14.00,2013-05-20 21:06:00,
2013-05-20 17:11:00,86.7,58.8,29.79,SW,225,3.1,4.0,39,0.00,,---,0.00,VWS V14.00,2013-05-20 21:11:00,
2013-05-20 17:16:00,86.4,58.5,29.79,South,180,2.7,4.0,39,0.00,,---,0.00,VWS V14.00,2013-05-20 21:16:00,
2013-05-20 17:21:00,86.2,58.3,29.79,SSW,202,1.6,3.8,39,0.00,,---,0.00,VWS V14.00,2013-05-20 21:21:00,
2013-05-20 17:26:00,86.0,58.2,29.79,West,270,1.3,3.1,39,0.00,,---,0.00,VWS V14.00,2013-05-20 21:26:00,
2013-05-20 17:31:00,85.8,58.7,29.79,SE,135,4.3,6.3,40,0.00,,---,0.00,VWS V14.00,2013-05-20 21:31:00,
2013-05-20 17:36:00,86.0,58.9,29.79,SSW,202,3.1,3.1,40,0.00,,---,0.00,VWS V14.00,2013-05-20 21:36:00,
2013-05-20 17:41:00,86.7,60.2,29.79,North,0,2.0,4.7,41,0.00,,---,0.00,VWS V14.00,2013-05-20 21:41:00,
2013-05-20 17:46:00,87.3,60.7,29.79,SE,135,2.5,7.6,41,0.00,,---,0.00,VWS V14.00,2013-05-20 21:46:00,
2013-05-20 17:51:00,87.3,60.7,29.79,SSW,202,1.6,4.0,41,0.00,,---,0.00,VWS V14.00,2013-05-20 21:51:00,
2013-05-20 17:56:00,87.3,60.0,29.79,West,270,3.6,3.6,40,0.00,,---,0.00,VWS V14.00,2013-05-20 21:56:00,
2013-05-20 18:01:00,87.4,60.2,29.79,South,180,4.0,4.0,40,0.00,,---,0.00,VWS V14.00,2013-05-20 22:01:00,
2013-05-20 18:06:00,87.4,59.5,29.79,SSW,202,4.0,4.0,39,0.00,,---,0.00,VWS V14.00,2013-05-20 22:06:00,
2013-05-20 18:11:00,87.4,58.7,29.79,SSE,158,2.5,2.5,38,0.00,,---,0.00,VWS V14.00,2013-05-20 22:11:00,
2013-05-20 18:16:00,87.1,59.2,29.76,NW,315,4.0,4.0,39,0.00,,---,0.00,VWS V14.00,2013-05-20 22:16:00,
2013-05-20 18:21:00,86.7,58.8,29.76,SW,225,3.1,3.1,39,0.00,,---,0.00,VWS V14.00,2013-05-20 22:21:00,
2013-05-20 18:26:00,86.7,58.8,29.76,SSW,202,1.1,1.1,39,0.00,,---,0.00,VWS V14.00,2013-05-20 22:26:00,
2013-05-20 18:31:00,86.9,59.0,29.76,West,270,2.7,2.7,39,0.00,,---,0.00,VWS V14.00,2013-05-20 22:31:00,
2013-05-20 18:36:00,86.5,58.7,29.76,SSW,202,2.0,2.7,39,0.00,,---,0.00,VWS V14.00,2013-05-20 22:36:00,
2013-05-20 18:41:00,86.4,58.5,29.76,SW,225,2.2,3.6,39,0.00,,---,0.00,VWS V14.00,2013-05-20 22:41:00,
2013-05-20 18:46:00,86.0,58.2,29.76,South,180,1.6,2.7,39,0.00,,---,0.00,VWS V14.00,2013-05-20 22:46:00,
2013-05-20 18:52:00,86.0,58.2,29.76,North,0,2.2,2.2,39,0.00,,---,0.00,VWS V14.00,2013-05-20 22:52:00,
2013-05-20 18:57:00,85.6,58.6,29.76,ESE,112,2.0,2.2,40,0.00,,---,0.00,VWS V14.00,2013-05-20 22:57:00,
2013-05-20 19:02:00,85.3,58.2,29.76,SW,225,0.0,2.0,40,0.00,,---,0.00,VWS V14.00,2013-05-20 23:02:00,
2013-05-20 19:07:00,84.9,57.9,29.76,SW,225,0.0,0.0,40,0.00,,---,0.00,VWS V14.00,2013-05-20 23:07:00,
2013-05-20 19:12:00,84.6,58.3,29.76,South,180,0.0,1.1,41,0.00,,---,0.00,VWS V14.00,2013-05-20 23:12:00,
2013-05-20 19:17:00,84.2,58.6,29.74,SW,225,1.6,3.1,42,0.00,,---,0.00,VWS V14.00,2013-05-20 23:17:00,
2013-05-20 19:22:00,84.0,59.1,29.74,West,270,1.3,1.3,43,0.00,,---,0.00,VWS V14.00,2013-05-20 23:22:00,
2013-05-20 19:27:00,83.8,59.0,29.74,WSW,248,3.4,3.4,43,0.00,,---,0.00,VWS V14.00,2013-05-20 23:27:00,
2013-05-20 19:32:00,83.5,58.7,29.76,NW,315,3.1,3.1,43,0.00,,---,0.00,VWS V14.00,2013-05-20 23:32:00,
2013-05-20 19:37:00,83.1,58.3,29.76,West,270,2.0,2.0,43,0.00,,---,0.00,VWS V14.00,2013-05-20 23:37:00,
2013-05-20 19:42:00,82.8,58.7,29.76,SSW,202,1.1,1.1,44,0.00,,---,0.00,VWS V14.00,2013-05-20 23:42:00,
2013-05-20 19:47:00,82.4,59.0,29.76,NNW,338,2.2,2.2,45,0.00,,---,0.00,VWS V14.00,2013-05-20 23:47:00,
2013-05-20 19:52:00,82.2,58.8,29.76,South,180,2.0,2.2,45,0.00,,---,0.00,VWS V14.00,2013-05-20 23:52:00,
2013-05-20 19:57:00,82.2,59.4,29.76,SSW,202,1.6,2.5,46,0.00,,---,0.00,VWS V14.00,2013-05-20 23:57:00,
2013-05-20 20:03:00,82.2,60.0,29.76,SSW,202,1.1,3.8,47,0.00,,---,0.00,VWS V14.00,2013-05-21 00:03:00,
2013-05-20 20:08:00,82.2,60.0,29.76,SSE,158,0.0,0.0,47,0.00,,---,0.00,VWS V14.00,2013-05-21 00:08:00,
2013-05-20 20:13:00,82.2,60.0,29.76,SSW,202,2.9,2.9,47,0.00,,---,0.00,VWS V14.00,2013-05-21 00:13:00,
2013-05-20 20:18:00,81.9,59.7,29.76,South,180,2.0,2.0,47,0.00,,---,0.00,VWS V14.00,2013-05-21 00:18:00,
2013-05-20 20:23:00,81.7,60.1,29.76,ESE,112,1.3,1.3,48,0.00,,---,0.00,VWS V14.00,2013-05-21 00:23:00,
2013-05-20 20:28:00,81.5,59.9,29.76,WNW,292,0.0,0.0,48,0.00,,---,0.00,VWS V14.00,2013-05-21 00:28:00,
2013-05-20 20:33:00,81.3,59.8,29.76,West,270,1.1,2.2,48,0.00,,---,0.00,VWS V14.00,2013-05-21 00:33:00,
2013-05-20 20:38:00,81.1,59.6,29.76,West,270,2.5,2.5,48,0.00,,---,0.00,VWS V14.00,2013-05-21 00:38:00,
2013-05-20 20:43:00,81.0,59.4,29.76,SSE,158,0.0,0.0,48,0.00,,---,0.00,VWS V14.00,2013-05-21 00:43:00,
2013-05-20 20:48:00,81.0,59.4,29.76,South,180,0.0,0.0,48,0.00,,---,0.00,VWS V14.00,2013-05-21 00:48:00,
2013-05-20 20:53:00,80.6,59.1,29.76,East,90,0.0,0.0,48,0.00,,---,0.00,VWS V14.00,2013-05-21 00:53:00,
2013-05-20 20:58:00,80.6,59.7,29.76,SE,135,0.0,0.0,49,0.00,,---,0.00,VWS V14.00,2013-05-21 00:58:00,
2013-05-20 21:03:00,80.2,59.4,29.76,SSE,158,0.0,0.0,49,0.00,,---,0.00,VWS V14.00,2013-05-21 01:03:00,
2013-05-20 21:08:00,79.9,59.6,29.76,SSE,158,0.0,0.9,50,0.00,,---,0.00,VWS V14.00,2013-05-21 01:08:00,
2013-05-20 21:13:00,79.9,59.6,29.76,East,90,1.1,2.5,50,0.00,,---,0.00,VWS V14.00,2013-05-21 01:13:00,
2013-05-20 21:19:00,79.9,60.2,29.76,South,180,2.0,2.0,51,0.00,,---,0.00,VWS V14.00,2013-05-21 01:19:00,
2013-05-20 21:24:00,79.7,60.5,29.76,SSE,158,2.7,2.7,52,0.00,,---,0.00,VWS V14.00,2013-05-21 01:24:00,
2013-05-20 21:29:00,79.3,60.2,29.76,SSE,158,0.0,2.2,52,0.00,,---,0.00,VWS V14.00,2013-05-21 01:29:00,
2013-05-20 21:34:00,79.2,60.6,29.76,SSE,158,2.5,2.9,53,0.00,,---,0.00,VWS V14.00,2013-05-21 01:34:00,
2013-05-20 21:39:00,79.2,60.6,29.76,South,180,0.0,1.1,53,0.00,,---,0.00,VWS V14.00,2013-05-21 01:39:00,
2013-05-20 21:44:00,78.8,60.8,29.76,SSE,158,3.6,3.6,54,0.00,,---,0.00,VWS V14.00,2013-05-21 01:44:00,
2013-05-20 21:49:00,78.6,61.1,29.76,SSE,158,0.0,0.0,55,0.00,,---,0.00,VWS V14.00,2013-05-21 01:49:00,
2013-05-20 21:54:00,78.3,60.8,29.76,SSE,158,0.0,0.0,55,0.00,,---,0.00,VWS V14.00,2013-05-21 01:54:00,
2013-05-20 21:59:00,78.1,61.1,29.76,SSE,158,2.0,2.0,56,0.00,,---,0.00,VWS V14.00,2013-05-21 01:59:00,
2013-05-20 22:04:00,77.9,61.0,29.76,SSE,158,0.0,0.0,56,0.00,,---,0.00,VWS V14.00,2013-05-21 02:04:00,
2013-05-20 22:09:00,77.7,61.8,29.76,SSE,158,3.4,3.4,58,0.00,,---,0.00,VWS V14.00,2013-05-21 02:09:00,
2013-05-20 22:14:00,77.5,61.6,29.76,SSE,158,0.0,0.0,58,0.00,,---,0.00,VWS V14.00,2013-05-21 02:14:00,
2013-05-20 22:19:00,77.4,61.9,29.76,South,180,0.0,1.1,59,0.00,,---,0.00,VWS V14.00,2013-05-21 02:19:00,
2013-05-20 22:24:00,77.2,62.2,29.76,South,180,0.0,0.0,60,0.00,,---,0.00,VWS V14.00,2013-05-21 02:24:00,
2013-05-20 22:29:00,77.2,62.7,29.76,SE,135,0.0,0.0,61,0.00,,---,0.00,VWS V14.00,2013-05-21 02:29:00,
2013-05-20 22:34:00,77.0,62.5,29.76,SSE,158,0.0,0.0,61,0.00,,---,0.00,VWS V14.00,2013-05-21 02:34:00,
2013-05-20 22:39:00,76.8,62.8,29.76,ESE,112,0.9,0.9,62,0.00,,---,0.00,VWS V14.00,2013-05-21 02:39:00,
2013-05-20 22:44:00,76.6,62.7,29.76,South,180,0.0,0.0,62,0.00,,---,0.00,VWS V14.00,2013-05-21 02:44:00,
2013-05-20 22:49:00,76.5,62.9,29.76,South,180,2.0,2.0,63,0.00,,---,0.00,VWS V14.00,2013-05-21 02:49:00,
2013-05-20 22:54:00,76.3,62.8,29.76,SSE,158,0.0,1.3,63,0.00,,---,0.00,VWS V14.00,2013-05-21 02:54:00,
2013-05-20 22:59:00,76.3,63.7,29.74,North,0,0.0,1.1,65,0.00,,---,0.00,VWS V14.00,2013-05-21 02:59:00,
2013-05-20 23:04:00,76.3,63.7,29.74,SSE,158,2.9,2.9,65,0.00,,---,0.00,VWS V14.00,2013-05-21 03:04:00,
2013-05-20 23:09:00,76.3,63.7,29.74,SSE,158,1.3,3.1,65,0.00,,---,0.00,VWS V14.00,2013-05-21 03:09:00,
2013-05-20 23:14:00,76.1,63.5,29.74,ESE,112,0.0,0.0,65,0.00,,---,0.00,VWS V14.00,2013-05-21 03:14:00,
2013-05-20 23:20:00,76.1,63.9,29.74,South,180,2.9,2.9,66,0.00,,---,0.00,VWS V14.00,2013-05-21 03:20:00,
2013-05-20 23:25:00,76.1,63.9,29.74,SE,135,1.1,3.1,66,0.00,,---,0.00,VWS V14.00,2013-05-21 03:25:00,
2013-05-20 23:30:00,76.1,63.9,29.79,SE,135,2.2,2.2,66,0.00,,---,0.00,VWS V14.00,2013-05-21 03:30:00,
2013-05-20 23:35:00,76.1,64.4,29.79,South,180,1.1,2.9,67,0.00,,---,0.00,VWS V14.00,2013-05-21 03:35:00,
2013-05-20 23:40:00,76.1,64.4,29.79,SSE,158,0.0,0.0,67,0.00,,---,0.00,VWS V14.00,2013-05-21 03:40:00,
2013-05-20 23:45:00,76.1,63.9,29.76,East,90,1.1,1.3,66,0.00,,---,0.00,VWS V14.00,2013-05-21 03:45:00,
2013-05-20 23:50:00,75.9,63.8,29.76,WSW,248,0.0,1.3,66,0.00,,---,0.00,VWS V14.00,2013-05-21 03:50:00,
2013-05-20 23:55:00,75.9,64.2,29.76,SSW,202,1.3,3.4,67,0.00,,---,0.00,VWS V14.00,2013-05-21 03:55:00,